CW7253 Weather Reports


Display with metric or nautical units.
time (UTC)temp
F
wind
direction
speed
MPH
gust
MPH
rain 1hr
in
rain 24hr
in
rain mn
in
humidity
%
barometer
mb
20260507060144 53 5 0.0 0.0 0.00 0.37 0.02 92 1010.4
20260507055635 53 5 0.0 0.0 0.00 0.37 0.02 92 1010.3
20260507055132 53 5 0.0 0.0 0.00 0.37 0.02 92 1010.3
20260507054857 53 5 0.0 0.0 0.00 0.37 0.02 92 1010.3
20260507054120 53 5 0.0 0.0 0.00 0.37 0.02 92 1010.2
20260507053845 53 5 0.0 0.0 0.01 0.37 0.02 92 1010.1
20260507053102 53 5 0.0 0.0 0.01 0.37 0.02 93 1010.2
20260507052602 53 5 0.0 0.0 0.01 0.37 0.02 93 1010.2
20260507052055 53 5 0.0 0.0 0.02 0.37 0.02 93 1010.2
20260507051550 53 5 0.0 0.0 0.02 0.37 0.02 94 1010.4
20260507051042 53 5 0.0 0.0 0.02 0.37 0.02 93 1010.2
20260507050536 53 5 0.0 0.0 0.02 0.37 0.02 93 1010.1
20260507050023 53 5 0.0 0.0 0.02 0.37 0.02 93 1010.2
20260507045751 53 5 0.0 0.0 0.02 0.37 0.02 93 1010.3
20260507045012 54 5 0.0 0.0 0.02 0.37 0.02 93 1010.3
20260507044736 54 5 0.0 0.0 0.02 0.37 0.02 92 1010.4
20260507043953 54 5 0.0 0.0 0.02 0.37 0.02 92 1010.3
20260507043449 54 5 0.0 0.0 0.01 0.36 0.01 91 1010.2
20260507042941 54 5 0.0 0.0 0.01 0.36 0.01 90 1010.1
20260507042436 54 5 0.0 0.0 0.01 0.36 0.01 90 1010.2
20260507041923 54 5 0.0 0.0 0.00 0.35 0.00 90 1009.9
20260507041420 55 5 0.0 0.0 0.00 0.35 0.00 89 1009.9
20260507040913 55 5 0.0 0.0 0.00 0.35 0.00 89 1010.2
20260507040406 55 5 0.0 0.0 0.00 0.35 0.00 89 1010.1
20260507035857 55 5 0.0 1.0 0.00 0.35 0.35 87 1010.0
20260507035351 55 5 0.0 1.0 0.00 0.35 0.35 88 1009.7
20260507035108 56 5 0.0 0.0 0.00 0.35 0.35 88 1010.0
20260507034334 56 5 0.0 0.0 0.00 0.35 0.35 89 1009.9
20260507033829 56 5 0.0 0.0 0.00 0.35 0.35 88 1010.0
20260507033322 56 5 0.0 4.0 0.00 0.35 0.35 89 1009.9
20260507032819 56 5 1.0 5.0 0.00 0.35 0.35 88 1009.5
20260507032544 56 5 1.0 5.0 0.00 0.35 0.35 88 1009.4
20260507031807 57 338 0.0 7.0 0.00 0.35 0.35 88 1009.8
20260507031756 57 338 0.0 7.0 0.00 0.35 0.35 88 1009.8
20260507030755 57 256 0.0 0.0 0.00 0.35 0.35 89 1009.9
20260507030520 57 256 0.0 0.0 0.00 0.35 0.35 88 1009.9
20260507025742 57 256 0.0 0.0 0.00 0.35 0.35 88 1009.7
20260507025508 57 256 0.0 4.0 0.00 0.35 0.35 88 1009.6
20260507024726 57 256 0.0 4.0 0.00 0.35 0.35 88 1009.8
20260507024454 57 256 0.0 0.0 0.00 0.35 0.35 89 1009.8
20260507023715 58 256 0.0 1.0 0.00 0.35 0.35 89 1009.7
20260507023204 58 256 0.0 5.0 0.00 0.35 0.35 89 1009.6
20260507022703 58 252 0.0 5.0 0.00 0.35 0.35 89 1009.6
20260507022428 58 252 0.0 1.0 0.00 0.35 0.35 90 1009.5
20260507021646 59 252 0.0 0.0 0.00 0.35 0.35 89 1009.3
20260507021145 59 252 0.0 4.0 0.00 0.35 0.35 89 1009.3
20260507020631 59 252 0.0 4.0 0.00 0.35 0.35 89 1009.3
20260507020132 59 252 0.0 0.0 0.00 0.35 0.35 88 1009.5
20260507015627 59 252 0.0 4.0 0.00 0.35 0.35 87 1009.4
20260507015121 60 252 0.0 4.0 0.00 0.35 0.35 87 1009.3
20260507014615 60 252 0.0 0.0 0.00 0.35 0.35 88 1009.4
20260507014606 60 252 0.0 1.0 0.00 0.35 0.35 87 1009.5
20260507013603 60 252 0.0 1.0 0.00 0.35 0.35 87 1009.5
20260507013057 60 252 0.0 5.0 0.00 0.35 0.35 88 1009.5
20260507012815 60 252 1.0 5.0 0.00 0.35 0.35 87 1009.6
20260507012041 60 252 0.0 5.0 0.00 0.35 0.35 87 1009.5
20260507011533 60 252 0.0 1.0 0.00 0.35 0.35 88 1009.4
20260507011027 60 252 0.0 0.0 0.00 0.35 0.35 88 1009.3
20260507010742 60 252 0.0 3.0 0.00 0.35 0.35 88 1009.2
20260507010244 60 252 0.0 6.0 0.00 0.35 0.35 88 1009.3
20260507005506 60 252 0.0 6.0 0.00 0.35 0.35 88 1009.0
20260507005001 61 252 0.0 4.0 0.00 0.35 0.35 88 1008.9
20260507004455 61 252 0.0 4.0 0.00 0.35 0.35 88 1008.9
20260507003948 61 252 0.0 8.0 0.00 0.35 0.35 88 1008.9
20260507003442 61 252 0.0 8.0 0.00 0.35 0.35 88 1008.7
20260507002930 61 252 0.0 5.0 0.00 0.35 0.35 89 1008.8
20260507002431 61 252 0.0 6.0 0.00 0.35 0.35 90 1008.5
20260507001925 61 253 0.0 6.0 0.00 0.35 0.35 91 1008.7
20260507001418 61 253 0.0 6.0 0.02 0.35 0.35 91 1008.5
20260507000913 61 253 0.0 3.0 0.03 0.35 0.35 92 1008.2
20260507000402 61 253 0.0 3.0 0.03 0.35 0.35 93 1008.2
20260506235901 61 253 0.0 0.0 0.03 0.35 0.35 93 1008.1
20260506235350 61 253 0.0 0.0 0.03 0.35 0.35 94 1007.9
20260506235116 62 253 0.0 2.0 0.03 0.35 0.35 94 1007.8
20260506234339 62 253 0.0 2.0 0.03 0.35 0.35 93 1007.7
20260506233832 62 253 0.0 3.0 0.03 0.35 0.35 93 1007.6
20260506233320 63 253 1.0 7.0 0.03 0.35 0.35 93 1007.5
20260506232820 63 253 1.0 7.0 0.03 0.35 0.35 93 1007.5
20260506232315 64 253 0.0 8.0 0.03 0.35 0.35 94 1007.4
20260506231804 65 253 1.0 8.0 0.02 0.34 0.35 94 1007.5
20260506231302 65 249 0.0 3.0 0.00 0.32 0.33 94 1007.4
20260506230750 65 249 0.0 0.0 0.00 0.32 0.32 94 1007.1
20260506230250 65 249 0.0 5.0 0.00 0.32 0.32 94 1007.2
20260506225740 65 249 0.0 5.0 0.00 0.32 0.32 94 1007.2
20260506225238 65 248 0.0 4.0 0.00 0.32 0.32 94 1007.2
20260506224733 66 248 0.0 4.0 0.00 0.32 0.32 94 1007.1
20260506224227 66 247 0.0 2.0 0.00 0.32 0.32 93 1006.9
20260506223721 66 247 0.0 3.0 0.00 0.32 0.32 93 1006.9
20260506223440 66 247 0.0 3.0 0.00 0.32 0.32 93 1006.8
20260506222702 66 247 0.0 6.0 0.00 0.32 0.32 92 1006.8
20260506222203 66 247 0.0 6.0 0.00 0.32 0.32 92 1006.8
20260506221657 66 248 0.0 1.0 0.00 0.32 0.32 91 1006.8
20260506221151 67 248 0.0 0.0 0.00 0.32 0.32 91 1006.8
20260506220908 67 248 0.0 0.0 0.00 0.32 0.32 90 1006.7
20260506220138 67 248 0.0 0.0 0.00 0.32 0.32 90 1006.7
20260506215626 67 248 0.0 0.0 0.00 0.32 0.32 90 1006.6
20260506215126 67 248 0.0 4.0 0.00 0.32 0.32 90 1006.6
20260506214621 67 248 0.0 4.0 0.00 0.32 0.32 90 1006.6
20260506214345 67 248 0.0 3.0 0.00 0.32 0.32 90 1006.6
20260506213605 67 248 0.0 3.0 0.00 0.32 0.32 90 1006.4
20260506213058 67 248 0.0 3.0 0.00 0.32 0.32 89 1006.3
20260506212557 67 248 0.0 0.0 0.00 0.32 0.32 89 1006.4
20260506212051 67 248 0.0 6.0 0.00 0.32 0.32 90 1006.3
20260506211545 67 248 0.0 6.0 0.00 0.32 0.32 89 1006.3
20260506211038 67 248 0.0 4.0 0.00 0.32 0.32 90 1006.4
20260506210525 67 248 0.0 5.0 0.00 0.32 0.32 90 1006.4
20260506210027 67 248 0.0 5.0 0.00 0.32 0.32 89 1006.3
20260506205744 67 248 0.0 1.0 0.00 0.32 0.32 89 1006.3
20260506205014 67 248 1.0 6.0 0.00 0.32 0.32 89 1006.2
20260506204504 67 252 2.0 10.0 0.00 0.32 0.32 88 1006.2
20260506204003 68 252 2.0 10.0 0.00 0.32 0.32 88 1006.2
20260506203456 68 257 1.0 8.0 0.00 0.32 0.32 88 1006.2
20260506202944 68 266 1.0 8.0 0.00 0.32 0.32 88 1006.1
20260506202445 68 204 1.0 6.0 0.00 0.32 0.32 89 1006.2
20260506201939 68 203 1.0 6.0 0.00 0.32 0.32 90 1006.2
20260506201432 67 202 1.0 7.0 0.00 0.32 0.32 91 1006.1
20260506200926 67 202 0.0 7.0 0.00 0.32 0.32 90 1006.2
20260506200414 66 211 0.0 5.0 0.00 0.32 0.32 91 1006.2
20260506195914 66 211 0.0 5.0 0.00 0.32 0.32 91 1006.3
20260506195404 66 201 1.0 6.0 0.00 0.32 0.32 91 1006.4
20260506195134 66 236 1.0 8.0 0.00 0.32 0.32 91 1006.4
20260506194356 66 236 1.0 8.0 0.00 0.32 0.32 91 1006.4
20260506193851 66 220 1.0 6.0 0.00 0.32 0.32 92 1006.4
20260506193616 66 220 1.0 6.0 0.00 0.32 0.32 91 1006.3
20260506192832 66 220 0.0 3.0 0.00 0.32 0.32 92 1006.5
20260506192603 66 220 1.0 8.0 0.00 0.32 0.32 92 1006.3
20260506191827 66 220 1.0 8.0 0.00 0.32 0.32 92 1006.4
20260506191551 65 211 1.0 7.0 0.00 0.32 0.32 93 1006.3
20260506190815 65 211 1.0 7.0 0.00 0.32 0.32 94 1006.5
20260506190304 65 211 1.0 7.0 0.00 0.32 0.32 94 1006.5
20260506190034 64 208 0.0 2.0 0.00 0.32 0.32 96 1006.5
20260506185250 64 208 1.0 6.0 0.00 0.32 0.32 95 1006.5
20260506185021 64 208 1.0 7.0 0.00 0.32 0.32 95 1006.7
20260506184245 64 207 1.0 7.0 0.00 0.32 0.32 95 1006.7
20260506183739 64 207 1.0 4.0 0.00 0.32 0.32 96 1006.7
20260506183232 63 206 1.0 6.0 0.00 0.32 0.32 96 1006.8
20260506182719 63 206 1.0 7.0 0.00 0.32 0.32 96 1006.8
20260506182220 63 205 2.0 8.0 0.00 0.32 0.32 96 1006.9
20260506181715 63 206 2.0 8.0 0.00 0.32 0.32 96 1006.9
20260506181204 63 203 2.0 7.0 0.00 0.32 0.32 96 1006.9
20260506180703 63 202 2.0 7.0 0.00 0.32 0.32 97 1007.0
20260506180156 63 203 1.0 7.0 0.00 0.32 0.32 97 1007.0
20260506175651 63 203 1.0 7.0 0.00 0.32 0.32 98 1007.0
20260506175145 63 210 1.0 6.0 0.00 0.32 0.32 98 1007.1
20260506174642 63 210 1.0 6.0 0.00 0.32 0.32 97 1007.0
20260506174634 63 200 2.0 7.0 0.00 0.32 0.32 97 1007.0
20260506173622 63 191 2.0 7.0 0.00 0.32 0.32 97 1006.9
20260506173121 62 190 2.0 7.0 0.00 0.32 0.32 97 1006.9
20260506172610 62 217 2.0 8.0 0.00 0.32 0.32 98 1007.0
20260506172104 62 162 2.0 8.0 0.00 0.32 0.32 98 1006.9
20260506171603 62 190 1.0 6.0 0.00 0.32 0.32 98 1007.0
20260506171057 62 188 1.0 6.0 0.00 0.32 0.32 99 1007.0
20260506170551 62 188 1.0 6.0 0.00 0.32 0.32 99 1007.0
20260506170038 62 178 1.0 4.0 0.00 0.32 0.32 99 1007.0
20260506165538 62 177 0.0 3.0 0.00 0.32 0.32 99 1006.9
20260506165032 62 177 0.0 3.0 0.00 0.32 0.32 99 1007.0
20260506164758 62 169 1.0 7.0 0.00 0.32 0.32 99 1007.0
20260506164020 62 170 1.0 7.0 0.00 0.32 0.32 99 1007.0
20260506163510 62 138 1.0 7.0 0.00 0.32 0.32 99 1007.0
20260506163238 62 137 1.0 7.0 0.01 0.32 0.32 99 1007.1
20260506162735 62 128 1.0 8.0 0.01 0.32 0.32 99 1007.0
20260506162623 62 198 1.0 8.0 0.02 0.32 0.32 99 1007.1
20260506161451 62 210 0.0 3.0 0.03 0.32 0.32 100 1007.1
20260506160945 62 211 0.0 3.0 0.04 0.32 0.32 100 1007.2
20260506160438 61 211 0.0 4.0 0.06 0.32 0.32 100 1007.2
20260506155925 61 211 0.0 4.0 0.07 0.32 0.32 100 1007.2
20260506155427 61 212 0.0 3.0 0.08 0.32 0.32 100 1007.2
20260506154921 61 212 0.0 5.0 0.09 0.32 0.32 100 1007.2
20260506154415 61 212 0.0 5.0 0.12 0.32 0.32 99 1007.1
20260506154135 61 130 1.0 6.0 0.14 0.32 0.32 99 1007.0
20260506153356 61 130 1.0 7.0 0.15 0.32 0.32 99 1007.0
20260506152856 61 238 0.0 7.0 0.15 0.31 0.31 99 1006.8
20260506152351 61 136 1.0 7.0 0.16 0.31 0.31 99 1006.9
20260506151844 61 135 1.0 7.0 0.15 0.30 0.30 99 1006.8
20260506151339 61 199 0.0 3.0 0.14 0.29 0.29 99 1007.2
20260506150832 61 202 0.0 3.0 0.14 0.28 0.28 99 1007.4
20260506150327 61 202 0.0 3.0 0.12 0.26 0.26 98 1007.3
20260506145814 61 215 0.0 0.0 0.12 0.25 0.25 99 1007.6
20260506145315 61 215 0.0 0.0 0.12 0.24 0.24 98 1007.8
20260506144804 61 215 0.0 0.0 0.11 0.21 0.22 98 1007.9
20260506144302 61 215 0.0 3.0 0.10 0.19 0.19 98 1008.1
20260506143757 61 215 0.0 3.0 0.10 0.18 0.18 98 1008.2
20260506143244 62 213 1.0 7.0 0.10 0.17 0.17 98 1008.2
20260506142745 62 213 1.0 7.0 0.10 0.16 0.16 97 1008.1
20260506142509 62 158 0.0 5.0 0.09 0.15 0.15 97 1007.9
20260506141732 62 158 0.0 5.0 0.10 0.15 0.15 97 1007.6
20260506141227 62 156 0.0 2.0 0.10 0.15 0.15 97 1007.6
20260506140720 62 156 0.0 2.0 0.09 0.14 0.14 97 1007.5
20260506140215 62 156 0.0 0.0 0.09 0.14 0.14 97 1007.5
20260506135704 62 156 0.0 0.0 0.09 0.13 0.13 96 1007.5
20260506135434 62 156 0.0 0.0 0.08 0.12 0.12 96 1007.4
20260506134657 62 156 0.0 0.0 0.07 0.10 0.10 96 1007.5
20260506134150 62 156 0.0 0.0 0.05 0.08 0.08 95 1007.6
20260506133915 62 156 0.0 0.0 0.05 0.08 0.08 95 1007.7
20260506133132 62 156 0.0 0.0 0.04 0.07 0.07 95 1007.7
20260506132632 62 155 0.0 0.0 0.04 0.06 0.06 94 1007.7
20260506132358 62 155 0.0 0.0 0.03 0.05 0.05 94 1007.7
20260506131620 62 155 0.0 5.0 0.03 0.05 0.05 94 1007.6
20260506131345 62 155 0.0 5.0 0.03 0.05 0.05 93 1007.7
20260506130836 62 170 0.0 4.0 0.04 0.05 0.05 93 1007.6
20260506125550 62 170 0.0 0.0 0.03 0.04 0.04 92 1007.7
20260506125051 62 170 0.0 0.0 0.03 0.04 0.04 92 1007.8
20260506124549 62 170 0.0 0.0 0.02 0.03 0.03 92 1007.8
20260506124050 62 170 0.0 0.0 0.03 0.03 0.03 91 1007.8
20260506123549 63 170 0.0 0.0 0.03 0.03 0.03 90 1007.9
20260506123050 63 170 0.0 0.0 0.03 0.03 0.03 90 1008.0
20260506122547 63 170 0.0 0.0 0.02 0.02 0.02 90 1008.1
20260506122046 63 170 0.0 0.0 0.02 0.02 0.02 89 1008.2
20260506121817 63 170 0.0 0.0 0.02 0.02 0.02 88 1008.2
20260506121044 63 170 0.0 0.0 0.02 0.02 0.02 88 1008.2
20260506120543 64 170 0.0 0.0 0.01 0.01 0.01 87 1008.3
20260506120044 64 170 0.0 0.0 0.01 0.01 0.01 86 1008.2
20260506115540 64 170 0.0 0.0 0.01 0.01 0.01 84 1007.9
20260506115040 65 170 0.0 0.0 0.01 0.01 0.01 84 1007.8
20260506114541 65 170 0.0 0.0 0.01 0.01 0.01 83 1007.7
20260506114041 65 170 0.0 0.0 0.00 0.00 0.00 81 1007.7
20260506113930 66 170 0.0 0.0 0.00 0.00 0.00 79 1007.6
20260506113820 65 170 0.0 0.0 0.00 0.00 0.00 80 1007.6
20260506112801 66 257 0.0 0.0 0.00 0.00 0.00 78 1007.6
20260506112022 66 257 0.0 0.0 0.00 0.00 0.00 76 1007.6
20260506111743 67 257 0.0 8.0 0.00 0.00 0.00 75 1007.5
20260506111003 67 257 0.0 8.0 0.00 0.00 0.00 74 1007.5
20260506110504 67 259 0.0 3.0 0.00 0.00 0.00 73 1007.4
20260506110003 67 259 0.0 3.0 0.00 0.00 0.00 73 1007.3
20260506105504 67 260 0.0 7.0 0.00 0.00 0.00 73 1007.2
20260506105234 67 260 0.0 7.0 0.00 0.00 0.00 73 1007.1
20260506104737 67 220 0.0 6.0 0.00 0.00 0.00 72 1007.1
20260506104004 67 220 0.0 6.0 0.00 0.00 0.00 72 1007.0
20260506103502 68 223 0.0 5.0 0.00 0.00 0.00 72 1007.0
20260506103236 68 224 0.0 5.0 0.00 0.00 0.00 71 1006.9
20260506102458 67 263 0.0 2.0 0.00 0.00 0.00 71 1006.8
20260506102217 67 263 0.0 8.0 0.00 0.00 0.00 71 1006.8
20260506101448 68 264 0.0 8.0 0.00 0.00 0.00 71 1006.7
20260506100947 67 180 0.0 3.0 0.00 0.00 0.00 70 1006.7
20260506100448 68 179 0.0 3.0 0.00 0.00 0.00 70 1006.6
20260506095946 68 213 0.0 7.0 0.00 0.00 0.00 71 1006.5
20260506095449 68 216 0.0 7.0 0.00 0.00 0.00 70 1006.6
20260506094947 68 179 0.0 3.0 0.00 0.00 0.00 70 1006.6
20260506094447 68 179 0.0 5.0 0.00 0.00 0.00 69 1006.7
20260506093948 68 179 0.0 7.0 0.00 0.00 0.00 69 1006.6
20260506093442 69 278 1.0 7.0 0.00 0.00 0.00 68 1006.6
20260506092931 69 240 0.0 7.0 0.00 0.00 0.00 68 1006.7
20260506092431 69 191 0.0 4.0 0.00 0.00 0.00 67 1006.7
20260506091930 69 192 1.0 5.0 0.00 0.00 0.00 67 1006.8
20260506091431 69 192 0.0 5.0 0.00 0.00 0.00 67 1006.9
20260506090931 69 191 0.0 5.0 0.00 0.00 0.00 67 1007.0
20260506090705 69 190 0.0 4.0 0.00 0.00 0.00 66 1007.0
20260506085930 69 190 0.0 4.0 0.00 0.00 0.00 66 1007.0
20260506085432 69 250 0.0 9.0 0.00 0.00 0.00 66 1007.0
20260506085202 69 250 1.0 9.0 0.00 0.00 0.00 66 1007.0
20260506084426 69 213 1.0 6.0 0.00 0.00 0.00 66 1006.9
20260506083915 69 200 1.0 6.0 0.00 0.00 0.00 65 1006.8
20260506083416 69 166 0.0 5.0 0.00 0.00 0.00 65 1006.8
20260506082914 69 196 1.0 7.0 0.00 0.00 0.00 65 1006.8
20260506082415 69 196 1.0 7.0 0.00 0.00 0.00 65 1006.9
20260506081915 69 163 0.0 5.0 0.00 0.00 0.00 65 1006.9
20260506081417 70 242 0.0 6.0 0.00 0.00 0.00 65 1006.9
20260506080914 70 243 1.0 6.0 0.00 0.00 0.00 64 1006.9
20260506080415 70 156 1.0 8.0 0.00 0.00 0.00 64 1006.9
20260506073402 70 178 1.0 9.0 0.00 0.00 0.00 63 1007.0
20260506073134 70 177 1.0 6.0 0.00 0.00 0.00 63 1007.0
20260506072404 70 177 1.0 6.0 0.00 0.00 0.00 63 1007.1
20260506071904 70 175 1.0 6.0 0.00 0.00 0.00 63 1007.1
20260506071404 70 175 1.0 8.0 0.00 0.00 0.00 62 1007.1
20260506070903 70 176 1.0 8.0 0.00 0.00 0.00 62 1007.1
20260506070402 70 178 1.0 8.0 0.00 0.00 0.00 62 1007.1
20260506062404 70 170 1.0 5.0 0.00 0.00 0.00 60 1007.7
20260506061903 71 169 0.0 5.0 0.00 0.00 0.00 59 1007.7
20260506061403 71 169 0.0 5.0 0.00 0.00 0.00 59 1007.8
20260506060902 70 168 0.0 6.0 0.00 0.00 0.00 59 1007.8